Location: Sungai Bunut
(2.6333°N, 113.7333°E)
Time: 09:45:44
(UTC+00:00)

Transit 2A Rocket - Pass Details

Date: 09 December 2023
Orbit: 590 x 905 km, 66.7° (Epoch: 01 March)

Event Time Altitude Azimuth Distance (km) Brightness Sun altitude
Rises 11:56:43 0° 227° (SW) 3,292 9.5 -23.9°
Reaches altitude 10° 11:59:53 10° 245° (WSW) 2,297 8.5 -24.6°
Maximum altitude 12:03:30 19° 289° (WNW) 1,691 7.3 -25.4°
Drops below altitude 10° 12:06:56 10° 334° (NNW) 2,144 7.3 -26.2°
Enters shadow 12:07:27 - 338° (NNW) 2,283 7.4 -26.3°
Sets 12:09:46 0° 352° (N) 2,998 - -26.9°
